Regional Weather Roundup
Issued by NWS Huntsville, AL

Home | Current Version | Previous Version | Text Only | Print | Product List | Glossary On
Versions: 1 2 3 4 5 6 7 8 9 10 11 12 13 14 15 16 17 18 19 20 21 22 23 24 25 26 27 28 29 30 31 32 33 34 35 36 37 38 39 40 41 42 43 44 45 46 47 48 49 50
220
ASUS44 KHUN 300210
RWRHUN

WEATHER ROUNDUP FOR THE TENNESSEE VALLEY
NATIONAL WEATHER SERVICE HUNTSVILLE AL
900 PM CDT FRI APR 29 2016

ALZ001>004-300300-
NORTHWEST ALABAMA

CITY           SKY/WX    TMP DP  RH WIND       PRES   REMARKS
COURTLAND HCN    N/A     63 N/A N/A SE7         N/A
RUSSELLVILLE     N/A     63 N/A N/A MISG        N/A
SHOALS AIRPORT NOT AVBL
SHOALS TVA RES   N/A     63 N/A N/A MISG        N/A
$$

ALZ005>007-016-300300-
NORTH CENTRAL ALABAMA

CITY           SKY/WX    TMP DP  RH WIND       PRES   REMARKS
CULLMAN AG STN   N/A     63 N/A N/A E7          N/A
DECATUR AP     CLOUDY    63  60  90 E10       29.98F
HUNTSVILLE AP  LGT RAIN  64  62  93 SE12      29.98F
HUN NWS/UAH      N/A     63  60  91 E5          N/A
MERIDIANVILLE  MOCLDY    63  55  77 SE8       30.00F
REDSTONE ARSN  LGT RAIN  62  60  95 S8        29.98F
VINEMONT AP    LGT RAIN  62  58  88 SE9       30.04F
$$

ALZ008>010-300300-
NORTHEAST ALABAMA

CITY           SKY/WX    TMP DP  RH WIND       PRES   REMARKS
ALBERTVILLE    RAIN      61  61 100 SE5       30.07F
FORT PAYNE     LGT RAIN  68  54  60 SW6       30.04R
SCOTTSBORO AP  LGT RAIN  64  64 100 CALM      30.05R
SCOTTSBORO HCN   N/A     64 N/A N/A MISG        N/A
VALLEY HEAD      N/A     70 N/A N/A MISG        N/A
$$

TNZ076-096-097-300300-
SOUTHEASTERN MIDDLE TENNESSEE

CITY           SKY/WX    TMP DP  RH WIND       PRES   REMARKS
TULLAHOMA      PTCLDY    64  61  88 SE6       30.02F
WINCHESTER     CLEAR     64  59  82 E3        30.02F
$$

...SURROUNDING SITES...

CITY           SKY/WX    TMP DP  RH WIND       PRES   REMARKS
ATLANTA        CLOUDY    79  51  37 NW5       29.99R
ANNISTON       LGT RAIN  70  57  63 S9        30.09R
BIRMINGHAM     LGT RAIN  64  62  93 E10       30.05S
CHATTANOOGA    CLOUDY    73  57  57 E3        29.99S
DALTON         MOCLDY    68  61  77 CALM      30.00R
GADSDEN        RAIN      63  61  93 W10       30.09R
GOLDEN TRNGL     N/A    N/A N/A N/A MISG        N/A
HALEYVILLE     FAIR      61  59  93 E7        29.98F
JACKSON TN     CLOUDY    63  58  83 MISG      29.89S
MEMPHIS        CLOUDY    65  61  87 SE8       29.87R
NASHVILLE      CLOUDY    68  60  75 SE5       29.98R
OXFORD MS      FAIR      63  59  88 SE7       29.90R
ROME           MOCLDY    70  60  70 CALM      29.99R
SAVANNAH       MOCLDY    64  59  82 VRB7G14   29.90S
TUPELO         PTCLDY    65  61  87 E5        29.91S
TUSCALOOSA     CLOUDY    65  64  97 E14       29.93F
$$

...GULF COAST WEATHER...

CITY           SKY/WX    TMP DP  RH WIND       PRES   REMARKS
GULFPORT       CLOUDY    76  73  91 SE14      29.88F
PASCAGOULA     PTCLDY    75  73  93 SE8       29.92R
MOBILE         CLOUDY    74  73  97 SE7       29.93R
GULF SHORES    MOCLDY    74  74 100 E13       29.93R
PENSACOLA      MOCLDY    76  73  91 SE9       29.93R
DESTIN         PTCLDY    78  76  93 S5        29.94
PANAMA CITY    PTCLDY    75  73  94 SE6       29.95R
APPALACHICOLA  CLEAR     76  74  93 S6        29.95R
$$





USA.gov is the U.S. government's official web portal to all federal, state and local government web resources and services.